| time (UTC) | temp F | wind direction | speed MPH | gust MPH | rain 1hr in | rain 24hr in | rain mn in | humidity % | barometer mb |
| 20260902030031 | 85 | 136 | 0.0 | 4.0 | 0.00 | 0.00 | 0.00 | 50 | 1008.9 |
| 20260902024528 | 86 | 136 | 0.0 | 3.0 | 0.00 | 0.00 | 0.00 | 48 | 1008.6 |
| 20260902023033 | 87 | 121 | 0.0 | 5.0 | 0.00 | 0.00 | 0.00 | 46 | 1008.4 |
| 20260902021526 | 87 | 134 | 0.0 | 3.0 | 0.00 | 0.00 | 0.00 | 46 | 1008.3 |
| 20260902020028 | 87 | 134 | 2.0 | 6.0 | 0.00 | 0.00 | 0.00 | 45 | 1008.1 |
| 20260902014530 | 88 | 139 | 2.0 | 7.0 | 0.00 | 0.00 | 0.00 | 45 | 1008.0 |
| 20260902013025 | 89 | 126 | 2.0 | 9.0 | 0.00 | 0.00 | 0.00 | 45 | 1008.0 |
| 20260902011523 | 90 | 135 | 2.0 | 10.0 | 0.00 | 0.00 | 0.00 | 43 | 1008.0 |
| 20260902010026 | 91 | 139 | 3.0 | 8.0 | 0.00 | 0.00 | 0.00 | 40 | 1007.9 |
| 20260902004525 | 92 | 139 | 3.0 | 8.0 | 0.00 | 0.00 | 0.00 | 39 | 1007.9 |
| 20260902003021 | 93 | 143 | 4.0 | 9.0 | 0.00 | 0.00 | 0.00 | 39 | 1008.0 |
| 20260902001519 | 93 | 139 | 1.0 | 9.0 | 0.00 | 0.00 | 0.00 | 39 | 1008.0 |
| 20260902000019 | 94 | 140 | 2.0 | 7.0 | 0.00 | 0.00 | 0.00 | 39 | 1008.1 |
| 20260901234517 | 94 | 134 | 2.0 | 10.0 | 0.00 | 0.00 | 0.00 | 39 | 1008.2 |
| 20260901233017 | 94 | 135 | 4.0 | 10.0 | 0.00 | 0.00 | 0.00 | 39 | 1008.5 |
| 20260901231514 | 94 | 136 | 3.0 | 8.0 | 0.00 | 0.00 | 0.00 | 38 | 1008.6 |
| 20260901230013 | 95 | 146 | 3.0 | 8.0 | 0.00 | 0.00 | 0.00 | 37 | 1008.7 |
| 20260901224520 | 95 | 132 | 2.0 | 8.0 | 0.00 | 0.00 | 0.00 | 37 | 1008.8 |
| 20260901223009 | 95 | 141 | 2.0 | 6.0 | 0.00 | 0.00 | 0.00 | 38 | 1009.0 |
| 20260901221520 | 94 | 122 | 1.0 | 6.0 | 0.00 | 0.00 | 0.00 | 37 | 1009.2 |
| 20260901220003 | 94 | 153 | 2.0 | 7.0 | 0.00 | 0.00 | 0.00 | 37 | 1009.5 |
| 20260901214502 | 94 | 123 | 2.0 | 5.0 | 0.00 | 0.00 | 0.00 | 39 | 1009.7 |
| 20260901213109 | 94 | 98 | 1.0 | 6.0 | 0.00 | 0.00 | 0.00 | 38 | 1010.0 |
| 20260901211556 | 94 | 129 | 2.0 | 6.0 | 0.00 | 0.00 | 0.00 | 38 | 1010.4 |
| 20260901210054 | 93 | 125 | 1.0 | 7.0 | 0.00 | 0.00 | 0.00 | 38 | 1010.6 |
| 20260901204605 | 93 | 131 | 0.0 | 6.0 | 0.00 | 0.10 | 0.00 | 39 | 1010.8 |
| 20260901203054 | 93 | 134 | 2.0 | 6.0 | 0.00 | 0.10 | 0.00 | 41 | 1011.1 |
| 20260901201552 | 92 | 130 | 2.0 | 9.0 | 0.00 | 0.10 | 0.00 | 41 | 1011.4 |
| 20260901200111 | 91 | 121 | 2.0 | 6.0 | 0.00 | 0.10 | 0.00 | 40 | 1011.6 |
| 20260901194603 | 91 | 134 | 2.0 | 7.0 | 0.00 | 0.30 | 0.00 | 41 | 1011.7 |
| 20260901193050 | 91 | 143 | 1.0 | 4.0 | 0.00 | 0.30 | 0.00 | 42 | 1012.0 |
| 20260901191621 | 91 | 107 | 0.0 | 6.0 | 0.00 | 0.30 | 0.00 | 41 | 1012.2 |
| 20260901190041 | 90 | 127 | 1.0 | 5.0 | 0.00 | 0.30 | 0.00 | 42 | 1012.4 |
| 20260901184540 | 89 | 136 | 2.0 | 5.0 | 0.00 | 0.33 | 0.00 | 43 | 1012.4 |
| 20260901183049 | 89 | 136 | 2.0 | 6.0 | 0.00 | 0.33 | 0.00 | 44 | 1012.7 |
| 20260901181542 | 89 | 155 | 2.0 | 4.0 | 0.00 | 0.33 | 0.00 | 42 | 1012.7 |
| 20260901180035 | 88 | 120 | 0.0 | 3.0 | 0.00 | 0.33 | 0.00 | 42 | 1012.9 |
| 20260901174534 | 87 | 131 | 0.0 | 5.0 | 0.00 | 0.33 | 0.00 | 47 | 1013.0 |
| 20260901173033 | 87 | 121 | 1.0 | 4.0 | 0.00 | 0.33 | 0.00 | 47 | 1013.0 |
| 20260901171532 | 86 | 134 | 1.0 | 3.0 | 0.00 | 0.33 | 0.00 | 48 | 1013.2 |
| 20260901170029 | 86 | 141 | 0.0 | 2.0 | 0.00 | 0.33 | 0.00 | 47 | 1013.1 |
| 20260901164525 | 84 | 106 | 0.0 | 1.0 | 0.00 | 0.33 | 0.00 | 53 | 1013.1 |
| 20260901163023 | 83 | 144 | 1.0 | 3.0 | 0.00 | 0.33 | 0.00 | 58 | 1013.1 |
| 20260901161526 | 82 | 158 | 0.0 | 3.0 | 0.00 | 0.33 | 0.00 | 59 | 1013.1 |
| 20260901160020 | 82 | 161 | 0.0 | 2.0 | 0.00 | 0.33 | 0.00 | 60 | 1013.0 |
| 20260901154517 | 81 | 169 | 0.0 | 2.0 | 0.00 | 0.33 | 0.00 | 62 | 1013.2 |
| 20260901153019 | 79 | 179 | 0.0 | 1.0 | 0.00 | 0.33 | 0.00 | 65 | 1013.2 |
| 20260901151528 | 79 | 157 | 0.0 | 0.0 | 0.00 | 0.33 | 0.00 | 66 | 1013.3 |
| 20260901150013 | 78 | 179 | 0.0 | 0.0 | 0.00 | 0.33 | 0.00 | 67 | 1013.3 |
| 20260901144509 | 78 | 175 | 0.0 | 0.0 | 0.00 | 0.33 | 0.00 | 67 | 1013.2 |
| 20260901143008 | 78 | 104 | 0.0 | 1.0 | 0.00 | 0.33 | 0.00 | 67 | 1013.2 |
| 20260901141503 | 75 | 102 | 0.0 | 3.0 | 0.00 | 0.33 | 0.00 | 74 | 1013.1 |
| 20260901140133 | 73 | 97 | 0.0 | 4.0 | 0.00 | 0.33 | 0.00 | 78 | 1013.0 |
| 20260901134555 | 72 | 106 | 0.0 | 0.0 | 0.00 | 0.33 | 0.00 | 81 | 1012.9 |
| 20260901133055 | 69 | 103 | 0.0 | 0.0 | 0.00 | 0.33 | 0.00 | 86 | 1012.9 |
| 20260901131550 | 68 | 106 | 0.0 | 0.0 | 0.00 | 0.33 | 0.00 | 89 | 1012.6 |
| 20260901130048 | 67 | 103 | 0.0 | 0.0 | 0.00 | 0.33 | 0.00 | 89 | 1012.3 |
| 20260901124547 | 67 | 105 | 0.0 | 3.0 | 0.00 | 0.35 | 0.00 | 91 | 1012.1 |
| 20260901123046 | 67 | 103 | 0.0 | 0.0 | 0.00 | 0.35 | 0.00 | 91 | 1011.8 |
| 20260901121544 | 67 | 91 | 0.0 | 0.0 | 0.00 | 0.35 | 0.00 | 91 | 1011.7 |
| 20260901120044 | 67 | 91 | 0.0 | 0.0 | 0.00 | 0.00 | 0.00 | 91 | 1011.7 |
| 20260901114543 | 67 | 91 | 0.0 | 0.0 | 0.00 | 0.35 | 0.00 | 91 | 1011.7 |
| 20260901113042 | 68 | 91 | 0.0 | 0.0 | 0.00 | 0.35 | 0.00 | 90 | 1011.8 |
| 20260901111540 | 68 | 91 | 0.0 | 0.0 | 0.00 | 0.35 | 0.00 | 90 | 1011.7 |
| 20260901110038 | 68 | 91 | 0.0 | 0.0 | 0.00 | 0.35 | 0.00 | 89 | 1011.6 |
| 20260901104536 | 68 | 91 | 0.0 | 0.0 | 0.00 | 0.35 | 0.00 | 89 | 1011.5 |
| 20260901103034 | 69 | 91 | 0.0 | 0.0 | 0.00 | 0.35 | 0.00 | 88 | 1011.3 |
| 20260901101553 | 69 | 91 | 0.0 | 0.0 | 0.00 | 0.35 | 0.00 | 87 | 1011.2 |
| 20260901100037 | 69 | 91 | 0.0 | 0.0 | 0.00 | 0.35 | 0.00 | 86 | 1011.1 |
| 20260901094538 | 69 | 91 | 0.0 | 0.0 | 0.00 | 0.35 | 0.00 | 85 | 1011.2 |
| 20260901093029 | 70 | 91 | 0.0 | 0.0 | 0.00 | 0.35 | 0.00 | 84 | 1011.2 |
| 20260901091545 | 70 | 98 | 0.0 | 4.0 | 0.00 | 0.35 | 0.00 | 84 | 1011.2 |
| 20260901090028 | 70 | 107 | 1.0 | 6.0 | 0.00 | 0.35 | 0.00 | 83 | 1011.1 |
| 20260901084536 | 70 | 105 | 0.0 | 3.0 | 0.00 | 0.35 | 0.00 | 85 | 1011.1 |
| 20260901083038 | 70 | 105 | 0.0 | 2.0 | 0.00 | 0.35 | 0.00 | 85 | 1011.2 |
| 20260901081525 | 70 | 104 | 0.0 | 3.0 | 0.00 | 0.35 | 0.00 | 85 | 1011.3 |
| 20260901080058 | 70 | 104 | 0.0 | 0.0 | 0.00 | 0.35 | 0.00 | 88 | 1011.3 |
| 20260901074523 | 70 | 101 | 0.0 | 0.0 | 0.00 | 0.35 | 0.00 | 87 | 1011.2 |
| 20260901073023 | 70 | 166 | 0.0 | 0.0 | 0.00 | 0.35 | 0.00 | 87 | 1011.3 |
| 20260901071519 | 70 | 166 | 0.0 | 0.0 | 0.00 | 0.35 | 0.00 | 86 | 1011.3 |
| 20260901070026 | 71 | 166 | 0.0 | 0.0 | 0.00 | 0.35 | 0.00 | 85 | 1011.3 |
| 20260901064516 | 70 | 165 | 0.0 | 0.0 | 0.00 | 0.35 | 0.35 | 84 | 1011.3 |
| 20260901063015 | 71 | 165 | 0.0 | 0.0 | 0.00 | 0.35 | 0.35 | 83 | 1011.4 |
| 20260901061516 | 71 | 165 | 0.0 | 0.0 | 0.00 | 0.35 | 0.35 | 83 | 1011.5 |
| 20260901060014 | 71 | 165 | 0.0 | 0.0 | 0.00 | 0.35 | 0.35 | 82 | 1011.3 |
| 20260901054514 | 72 | 165 | 0.0 | 0.0 | 0.00 | 0.35 | 0.35 | 82 | 1011.2 |
| 20260901053017 | 73 | 160 | 0.0 | 0.0 | 0.00 | 0.35 | 0.35 | 81 | 1011.0 |
| 20260901051513 | 73 | 160 | 0.0 | 0.0 | 0.00 | 0.35 | 0.35 | 80 | 1011.1 |
| 20260901050013 | 74 | 160 | 0.0 | 0.0 | 0.00 | 0.35 | 0.35 | 78 | 1011.2 |
| 20260901044512 | 74 | 98 | 0.0 | 0.0 | 0.00 | 0.35 | 0.35 | 76 | 1011.3 |
| 20260901043024 | 75 | 101 | 0.0 | 0.0 | 0.00 | 0.35 | 0.35 | 73 | 1011.1 |
| 20260901041514 | 75 | 102 | 0.0 | 0.0 | 0.00 | 0.35 | 0.35 | 72 | 1011.3 |
| 20260901040012 | 76 | 102 | 0.0 | 0.0 | 0.00 | 0.35 | 0.35 | 71 | 1011.1 |
| 20260901034510 | 76 | 104 | 0.0 | 4.0 | 0.00 | 0.35 | 0.35 | 71 | 1010.9 |
| 20260901033017 | 75 | 103 | 0.0 | 3.0 | 0.00 | 0.35 | 0.35 | 72 | 1010.7 |
| 20260901031509 | 75 | 153 | 0.0 | 0.0 | 0.00 | 0.35 | 0.35 | 74 | 1010.7 |